Weather History for New Delhi, India

Change the Weather History Date:

Friday, April 18, 2014

  Actual Average Record
Temperature  
Mean Temperature 75 °F -  
Max Temperature 84 °F 100 °F 104 °F (2002)
Min Temperature 66 °F 76 °F 62 °F (1997)
Cooling Degree Days 10    
Growing Degree Days 25 (Base 50)    
Moisture  
Dew Point 58 °F    
Average Humidity 52    
Maximum Humidity 83    
Minimum Humidity 42    
Precipitation  
Precipitation 0.00 in - - ()
Sea Level Pressure  
Sea Level Pressure 29.88 in    
Wind  
Wind Speed 8 mph ()    
Max Wind Speed 13 mph    
Max Gust Speed 23 mph    
Visibility 2.4 miles    
Events Rain , Thunderstorm    
Averages and records for this station are not official NWS values.
T = Trace of Precipitation, MM = Missing Value Source: Averaged Metar Reports

Daily Weather History Graph

Daily Weather History Graph

Search for Another Location

Airport:

Trip Planner

Search our weather history database for the weather conditions in past years. The results will help you decide how hot, cold, wet, or windy it might be!

Date:

Astronomy

Apr. 18, 2014 Rise Set
Actual Time 5:53 AM IST 6:48 PM IST
Civil Twilight 5:29 AM IST 7:13 PM IST
Nautical Twilight 5:00 AM IST 7:41 PM IST
Astronomical Twilight 4:31 AM IST 8:11 PM IST
Moon 9:56 PM IST 8:01 AM IST
Length of Visible Light 13h 44m
Length of Day
12h 55m
Waning Gibbous, 90% of the Moon is Illuminated
Apr 18
Waning Gibbous
Apr 22
Last Quarter
Apr 29
New
May 7
First Quarter
May 15
Full

Hourly Weather History & Observations

Time (IST) Temp. Heat Index Dew Point Humidity Pressure Visibility Wind Dir Wind Speed Gust Speed Precip Events Conditions
12:00 AM 77.0 °F - 53.6 °F 44% 29.80 in 1.9 mi ENE 3.5 mph - N/A   Haze
12:30 AM 78.8 °F - 53.6 °F 42% 29.83 in 1.9 mi SW 9.2 mph - N/A   Haze
2:00 AM 77.0 °F - 53.6 °F 44% 29.83 in 1.9 mi North 9.2 mph - N/A Thunderstorm Thunderstorm
2:30 AM 77.0 °F - 53.6 °F 44% 29.77 in 1.9 mi NE 12.7 mph - N/A   Haze
3:00 AM 77.0 °F - 53.6 °F 44% 29.77 in 1.9 mi East 11.5 mph - N/A   Haze
3:30 AM 77.0 °F - 53.6 °F 44% 29.77 in 1.9 mi SE 8.1 mph - N/A   Light Drizzle
4:00 AM 77.0 °F - 55.4 °F 47% 29.80 in 1.9 mi SW 5.8 mph - N/A   Light Drizzle
5:00 AM 71.6 °F - 59.0 °F 64% 29.92 in 1.3 mi West 11.5 mph 23.0 mph N/A Rain , Thunderstorm Thunderstorms and Rain
5:30 AM 68.0 °F - 60.8 °F 78% 29.98 in 1.3 mi West 11.5 mph 23.0 mph N/A Rain , Thunderstorm Thunderstorms and Rain
6:00 AM 66.2 °F - 60.8 °F 83% 29.98 in 1.3 mi WSW 11.5 mph 23.0 mph N/A Rain , Thunderstorm Thunderstorms and Rain
7:00 AM 66.2 °F - 59.0 °F 78% 29.83 in 1.6 mi NE 9.2 mph - N/A Thunderstorm Thunderstorm
8:30 AM 69.8 °F - 59.0 °F 68% 29.86 in 2.2 mi ENE 10.4 mph - N/A   Haze
9:00 AM 69.8 °F - 57.2 °F 64% 29.86 in 2.5 mi ENE 10.4 mph - N/A   Haze
9:30 AM 73.4 °F - 55.4 °F 53% 29.89 in 2.8 mi North 10.4 mph - N/A   Haze
10:00 AM 77.0 °F - 57.2 °F 50% 29.89 in 2.8 mi ENE 11.5 mph - N/A   Haze
11:00 AM 77.0 °F - 59.0 °F 54% 29.92 in 3.1 mi NE 12.7 mph - N/A   Haze
11:30 AM 78.8 °F - 59.0 °F 51% 29.92 in 3.1 mi ENE 6.9 mph 18.4 mph N/A   Haze
12:00 PM 80.6 °F 81.1 °F 59.0 °F 48% 29.92 in 3.1 mi ENE 6.9 mph 19.6 mph N/A   Haze
12:30 PM 80.6 °F 81.1 °F 59.0 °F 48% 29.92 in 3.7 mi East 9.2 mph 20.7 mph N/A   Scattered Clouds
1:00 PM 80.6 °F 81.5 °F 60.8 °F 51% 29.92 in 3.7 mi East 9.2 mph 20.7 mph N/A   Scattered Clouds
1:30 PM 82.4 °F 82.9 °F 60.8 °F 48% 29.92 in 3.7 mi East 9.2 mph 20.7 mph N/A   Scattered Clouds
2:00 PM 82.4 °F 82.9 °F 60.8 °F 48% 29.92 in 3.7 mi ENE 9.2 mph 20.7 mph N/A   Scattered Clouds
2:30 PM 84.2 °F 84.4 °F 60.8 °F 45% 29.92 in 3.7 mi ESE 9.2 mph 20.7 mph N/A   Scattered Clouds
3:00 PM 82.4 °F 82.0 °F 57.2 °F 42% 29.92 in 3.7 mi SE 5.8 mph 17.3 mph N/A   Scattered Clouds
4:00 PM 82.4 °F 82.0 °F 57.2 °F 42% 29.86 in 2.5 mi ESE 5.8 mph 17.3 mph N/A   Haze
4:30 PM 82.4 °F 82.0 °F 57.2 °F 42% 29.86 in 2.2 mi SE 5.8 mph 17.3 mph N/A   Haze
5:00 PM 82.4 °F 82.5 °F 59.0 °F 45% 29.86 in 2.2 mi ESE 5.8 mph 17.3 mph N/A   Haze
5:30 PM 82.4 °F 82.0 °F 57.2 °F 42% 29.86 in 2.2 mi ESE 9.2 mph - N/A   Haze
6:00 PM 82.4 °F 82.5 °F 59.0 °F 45% 29.86 in - ESE 9.2 mph - N/A   Haze
6:30 PM 80.6 °F 80.8 °F 57.2 °F 45% 29.86 in - ESE 11.5 mph - N/A   Haze
7:00 PM 80.6 °F 80.8 °F 57.2 °F 45% 29.86 in - SE 10.4 mph - N/A   Haze
7:30 PM 78.8 °F - 57.2 °F 47% 29.86 in - ESE 10.4 mph - N/A   Haze
8:00 PM 77.0 °F - 57.2 °F 50% 29.89 in - East 9.2 mph - N/A   Haze
8:30 PM 77.0 °F - 57.2 °F 50% 29.89 in - ESE 9.2 mph - N/A   Haze
9:00 PM 75.2 °F - 57.2 °F 53% 29.89 in - ESE 8.1 mph - N/A   Haze
10:00 PM 75.2 °F - 59.0 °F 57% 29.89 in 1.9 mi ESE 6.9 mph - N/A   Haze
10:30 PM 73.4 °F - 57.2 °F 57% 29.92 in 1.9 mi SE 8.1 mph - N/A   Haze
11:00 PM 71.6 °F - 57.2 °F 60% 29.89 in 1.9 mi East 5.8 mph - N/A   Haze
11:30 PM 71.6 °F - 57.2 °F 60% 29.89 in 1.6 mi ESE 6.9 mph - N/A   Haze